Time,TemperatureF,DewpointF,PressureIn,WindDirection,WindDirectionDegrees,WindSpeedMPH,WindSpeedGustMPH,Humidity,HourlyPrecipIn,Conditions,Clouds,dailyrainin,SolarRadiationWatts/m^2,SoftwareType,DateUTC
2013-06-13 00:01:00,78.0,38.0,-100.00,SSE,152,12.0,17.0,24,0.00,,,0.00,0.000000,,2013-06-13 06:01:00,
2013-06-13 00:22:00,78.0,38.0,-100.00,SSE,152,12.0,17.0,24,0.00,,,0.00,0.000000,,2013-06-13 06:22:00,
2013-06-13 00:33:00,78.0,38.0,-100.00,SSE,152,12.0,17.0,24,0.00,,,0.00,0.000000,,2013-06-13 06:33:00,
2013-06-13 00:44:00,78.0,38.0,-100.00,SSE,152,12.0,17.0,24,0.00,,,0.00,0.000000,,2013-06-13 06:44:00,
2013-06-13 00:52:00,78.0,38.0,-100.00,SSE,152,12.0,17.0,24,0.00,,,0.00,0.000000,,2013-06-13 06:52:00,
2013-06-13 01:01:00,75.0,42.0,-100.00,SE,127,8.0,18.0,31,0.00,,,0.00,0.000000,,2013-06-13 07:01:00,
2013-06-13 01:22:00,75.0,42.0,-100.00,SE,127,8.0,18.0,31,0.00,,,0.00,0.000000,,2013-06-13 07:22:00,
2013-06-13 01:33:00,75.0,42.0,-100.00,SE,127,8.0,18.0,31,0.00,,,0.00,0.000000,,2013-06-13 07:33:00,
2013-06-13 01:42:00,75.0,42.0,-100.00,SE,127,8.0,18.0,31,0.00,,,0.00,0.000000,,2013-06-13 07:42:00,
2013-06-13 01:52:00,75.0,42.0,-100.00,SE,127,8.0,18.0,31,0.00,,,0.00,0.000000,,2013-06-13 07:52:00,
2013-06-13 02:01:00,73.0,43.0,-100.00,SE,130,9.0,17.0,34,0.00,,,0.00,0.000000,,2013-06-13 08:01:00,
2013-06-13 02:22:00,73.0,43.0,-100.00,SE,130,9.0,17.0,34,0.00,,,0.00,0.000000,,2013-06-13 08:22:00,
2013-06-13 02:32:00,73.0,43.0,-100.00,SE,130,9.0,17.0,34,0.00,,,0.00,0.000000,,2013-06-13 08:32:00,
2013-06-13 02:43:00,73.0,43.0,-100.00,SE,130,9.0,17.0,34,0.00,,,0.00,0.000000,,2013-06-13 08:43:00,
2013-06-13 02:52:00,73.0,43.0,-100.00,SE,130,9.0,17.0,34,0.00,,,0.00,0.000000,,2013-06-13 08:52:00,
2013-06-13 03:01:00,72.0,48.0,-100.00,SE,132,9.0,17.0,43,0.00,,,0.00,0.000000,,2013-06-13 09:01:00,
2013-06-13 03:22:00,72.0,48.0,-100.00,SE,132,9.0,17.0,43,0.00,,,0.00,0.000000,,2013-06-13 09:22:00,
2013-06-13 03:32:00,72.0,48.0,-100.00,SE,132,9.0,17.0,43,0.00,,,0.00,0.000000,,2013-06-13 09:32:00,
2013-06-13 03:42:00,72.0,48.0,-100.00,SE,132,9.0,17.0,43,0.00,,,0.00,0.000000,,2013-06-13 09:42:00,
2013-06-13 03:52:00,72.0,48.0,-100.00,SE,132,9.0,17.0,43,0.00,,,0.00,0.000000,,2013-06-13 09:52:00,
2013-06-13 04:01:00,69.0,47.0,-100.00,ENE,65,2.0,19.0,45,0.00,,,0.00,0.000000,,2013-06-13 10:01:00,
2013-06-13 04:22:00,69.0,47.0,-100.00,ENE,65,2.0,19.0,45,0.00,,,0.00,0.000000,,2013-06-13 10:22:00,
2013-06-13 04:33:00,69.0,47.0,-100.00,ENE,65,2.0,19.0,45,0.00,,,0.00,0.000000,,2013-06-13 10:33:00,
2013-06-13 04:43:00,69.0,47.0,-100.00,ENE,65,2.0,19.0,45,0.00,,,0.00,0.000000,,2013-06-13 10:43:00,
2013-06-13 04:53:00,69.0,47.0,-100.00,ENE,65,2.0,19.0,45,0.00,,,0.00,0.000000,,2013-06-13 10:53:00,
2013-06-13 05:01:00,71.0,47.0,-100.00,SSW,192,7.0,13.0,42,0.00,,,0.00,0.000000,,2013-06-13 11:01:00,
2013-06-13 05:24:00,71.0,47.0,-100.00,SSW,192,7.0,13.0,42,0.00,,,0.00,0.000000,,2013-06-13 11:24:00,
2013-06-13 05:32:00,71.0,47.0,-100.00,SSW,192,7.0,13.0,42,0.00,,,0.00,0.000000,,2013-06-13 11:32:00,
2013-06-13 05:42:00,71.0,47.0,-100.00,SSW,192,7.0,13.0,42,0.00,,,0.00,0.000000,,2013-06-13 11:42:00,
2013-06-13 05:52:00,71.0,47.0,-100.00,SSW,192,7.0,13.0,42,0.00,,,0.00,0.000000,,2013-06-13 11:52:00,
2013-06-13 06:01:00,65.0,49.0,-100.00,East,85,4.0,8.0,56,0.00,,,0.00,1.000000,,2013-06-13 12:01:00,
2013-06-13 06:22:00,65.0,49.0,-100.00,East,85,4.0,8.0,56,0.00,,,0.00,1.000000,,2013-06-13 12:22:00,
2013-06-13 06:35:00,65.0,49.0,-100.00,East,85,4.0,8.0,56,0.00,,,0.00,1.000000,,2013-06-13 12:35:00,
2013-06-13 06:43:00,65.0,49.0,-100.00,East,85,4.0,8.0,56,0.00,,,0.00,1.000000,,2013-06-13 12:43:00,
2013-06-13 06:52:00,65.0,49.0,-100.00,East,85,4.0,8.0,56,0.00,,,0.00,1.000000,,2013-06-13 12:52:00,
2013-06-13 07:01:00,69.0,50.0,-100.00,SE,143,8.0,14.0,50,0.00,,,0.00,23.000000,,2013-06-13 13:01:00,
2013-06-13 07:22:00,69.0,50.0,-100.00,SE,143,8.0,14.0,50,0.00,,,0.00,23.000000,,2013-06-13 13:22:00,
2013-06-13 07:33:00,69.0,50.0,-100.00,SE,143,8.0,14.0,50,0.00,,,0.00,23.000000,,2013-06-13 13:33:00,
2013-06-13 07:43:00,69.0,50.0,-100.00,SE,143,8.0,14.0,50,0.00,,,0.00,23.000000,,2013-06-13 13:43:00,
2013-06-13 07:53:00,69.0,50.0,-100.00,SE,143,8.0,14.0,50,0.00,,,0.00,23.000000,,2013-06-13 13:53:00,
2013-06-13 08:01:00,74.0,47.0,-100.00,SE,126,12.0,19.0,39,0.00,,,0.00,255.000000,,2013-06-13 14:01:00,
2013-06-13 08:22:00,74.0,47.0,-100.00,SE,126,12.0,19.0,39,0.00,,,0.00,255.000000,,2013-06-13 14:22:00,
2013-06-13 08:33:00,74.0,47.0,-100.00,SE,126,12.0,19.0,39,0.00,,,0.00,255.000000,,2013-06-13 14:33:00,
2013-06-13 08:43:00,74.0,47.0,-100.00,SE,126,12.0,19.0,39,0.00,,,0.00,255.000000,,2013-06-13 14:43:00,
2013-06-13 08:53:00,74.0,47.0,-100.00,SE,126,12.0,19.0,39,0.00,,,0.00,255.000000,,2013-06-13 14:53:00,
2013-06-13 09:01:00,77.0,46.0,-100.00,SE,126,13.0,21.0,33,0.00,,,0.00,482.000000,,2013-06-13 15:01:00,
2013-06-13 09:22:00,77.0,46.0,-100.00,SE,126,13.0,21.0,33,0.00,,,0.00,482.000000,,2013-06-13 15:22:00,
2013-06-13 09:33:00,77.0,46.0,-100.00,SE,126,13.0,21.0,33,0.00,,,0.00,482.000000,,2013-06-13 15:33:00,
2013-06-13 09:43:00,77.0,46.0,-100.00,SE,126,13.0,21.0,33,0.00,,,0.00,482.000000,,2013-06-13 15:43:00,
2013-06-13 09:53:00,77.0,46.0,-100.00,SE,126,13.0,21.0,33,0.00,,,0.00,482.000000,,2013-06-13 15:53:00,
2013-06-13 10:01:00,80.0,42.0,-100.00,SE,124,14.0,22.0,26,0.00,,,0.00,691.000000,,2013-06-13 16:01:00,
2013-06-13 10:22:00,80.0,42.0,-100.00,SE,124,14.0,22.0,26,0.00,,,0.00,691.000000,,2013-06-13 16:22:00,
2013-06-13 10:33:00,80.0,42.0,-100.00,SE,124,14.0,22.0,26,0.00,,,0.00,691.000000,,2013-06-13 16:33:00,
2013-06-13 10:43:00,80.0,42.0,-100.00,SE,124,14.0,22.0,26,0.00,,,0.00,691.000000,,2013-06-13 16:43:00,
2013-06-13 10:53:00,80.0,42.0,-100.00,SE,124,14.0,22.0,26,0.00,,,0.00,691.000000,,2013-06-13 16:53:00,
2013-06-13 11:01:00,83.0,41.0,-100.00,East,97,11.0,21.0,23,0.00,,,0.00,867.000000,,2013-06-13 17:01:00,
2013-06-13 11:25:00,83.0,41.0,-100.00,East,97,11.0,21.0,23,0.00,,,0.00,867.000000,,2013-06-13 17:25:00,
2013-06-13 11:33:00,83.0,41.0,-100.00,East,97,11.0,21.0,23,0.00,,,0.00,867.000000,,2013-06-13 17:33:00,
2013-06-13 11:43:00,83.0,41.0,-100.00,East,97,11.0,21.0,23,0.00,,,0.00,867.000000,,2013-06-13 17:43:00,
2013-06-13 11:53:00,83.0,41.0,-100.00,East,97,11.0,21.0,23,0.00,,,0.00,867.000000,,2013-06-13 17:53:00,
2013-06-13 12:01:00,85.0,39.0,-100.00,SE,135,10.0,20.0,20,0.00,,,0.00,991.000000,,2013-06-13 18:01:00,
2013-06-13 12:22:00,85.0,39.0,-100.00,SE,135,10.0,20.0,20,0.00,,,0.00,991.000000,,2013-06-13 18:22:00,
2013-06-13 12:33:00,85.0,39.0,-100.00,SE,135,10.0,20.0,20,0.00,,,0.00,991.000000,,2013-06-13 18:33:00,
2013-06-13 12:43:00,85.0,39.0,-100.00,SE,135,10.0,20.0,20,0.00,,,0.00,991.000000,,2013-06-13 18:43:00,
2013-06-13 12:52:00,85.0,39.0,-100.00,SE,135,10.0,20.0,20,0.00,,,0.00,991.000000,,2013-06-13 18:52:00,
2013-06-13 13:01:00,88.0,43.0,-100.00,SE,125,10.0,20.0,21,0.00,,,0.00,1040.000000,,2013-06-13 19:01:00,
2013-06-13 13:23:00,88.0,43.0,-100.00,SE,125,10.0,20.0,21,0.00,,,0.00,1040.000000,,2013-06-13 19:23:00,
2013-06-13 13:33:00,88.0,43.0,-100.00,SE,125,10.0,20.0,21,0.00,,,0.00,1040.000000,,2013-06-13 19:33:00,
2013-06-13 13:43:00,88.0,43.0,-100.00,SE,125,10.0,20.0,21,0.00,,,0.00,1040.000000,,2013-06-13 19:43:00,
2013-06-13 13:53:00,88.0,43.0,-100.00,SE,125,10.0,20.0,21,0.00,,,0.00,1040.000000,,2013-06-13 19:53:00,
2013-06-13 14:01:00,88.0,43.0,-100.00,ESE,116,9.0,20.0,21,0.00,,,0.00,1038.000000,,2013-06-13 20:01:00,
2013-06-13 14:22:00,88.0,43.0,-100.00,ESE,116,9.0,20.0,21,0.00,,,0.00,1038.000000,,2013-06-13 20:22:00,
2013-06-13 14:33:00,88.0,43.0,-100.00,ESE,116,9.0,20.0,21,0.00,,,0.00,1038.000000,,2013-06-13 20:33:00,
2013-06-13 14:44:00,88.0,43.0,-100.00,ESE,116,9.0,20.0,21,0.00,,,0.00,1038.000000,,2013-06-13 20:44:00,
2013-06-13 14:53:00,88.0,43.0,-100.00,ESE,116,9.0,20.0,21,0.00,,,0.00,1038.000000,,2013-06-13 20:53:00,
2013-06-13 15:01:00,90.0,39.0,-100.00,ESE,114,11.0,20.0,17,0.00,,,0.00,986.000000,,2013-06-13 21:01:00,
2013-06-13 15:22:00,90.0,39.0,-100.00,ESE,114,11.0,20.0,17,0.00,,,0.00,986.000000,,2013-06-13 21:22:00,
2013-06-13 15:34:00,90.0,39.0,-100.00,ESE,114,11.0,20.0,17,0.00,,,0.00,986.000000,,2013-06-13 21:34:00,
2013-06-13 15:43:00,90.0,39.0,-100.00,ESE,114,11.0,20.0,17,0.00,,,0.00,986.000000,,2013-06-13 21:43:00,
2013-06-13 15:52:00,90.0,39.0,-100.00,ESE,114,11.0,20.0,17,0.00,,,0.00,986.000000,,2013-06-13 21:52:00,
2013-06-13 16:01:00,90.0,39.0,-100.00,ESE,120,8.0,18.0,17,0.00,,,0.00,873.000000,,2013-06-13 22:01:00,
2013-06-13 16:22:00,90.0,39.0,-100.00,ESE,120,8.0,18.0,17,0.00,,,0.00,873.000000,,2013-06-13 22:22:00,
2013-06-13 16:33:00,90.0,39.0,-100.00,ESE,120,8.0,18.0,17,0.00,,,0.00,873.000000,,2013-06-13 22:33:00,
2013-06-13 16:43:00,90.0,39.0,-100.00,ESE,120,8.0,18.0,17,0.00,,,0.00,873.000000,,2013-06-13 22:43:00,
2013-06-13 16:52:00,90.0,39.0,-100.00,ESE,120,8.0,18.0,17,0.00,,,0.00,873.000000,,2013-06-13 22:52:00,
2013-06-13 17:01:00,89.0,40.0,-100.00,SSE,152,9.0,23.0,18,0.00,,,0.00,704.000000,,2013-06-13 23:01:00,
2013-06-13 17:22:00,89.0,40.0,-100.00,SSE,152,9.0,23.0,18,0.00,,,0.00,704.000000,,2013-06-13 23:22:00,
2013-06-13 17:32:00,89.0,40.0,-100.00,SSE,152,9.0,23.0,18,0.00,,,0.00,704.000000,,2013-06-13 23:32:00,
2013-06-13 17:43:00,89.0,40.0,-100.00,SSE,152,9.0,23.0,18,0.00,,,0.00,704.000000,,2013-06-13 23:43:00,
2013-06-13 17:52:00,89.0,40.0,-100.00,SSE,152,9.0,23.0,18,0.00,,,0.00,704.000000,,2013-06-13 23:52:00,
2013-06-13 18:01:00,87.0,40.0,-100.00,SE,128,13.0,21.0,19,0.00,,,0.00,508.000000,,2013-06-14 00:01:00,
2013-06-13 18:22:00,87.0,40.0,-100.00,SE,128,13.0,21.0,19,0.00,,,0.00,508.000000,,2013-06-14 00:22:00,
2013-06-13 18:34:00,87.0,40.0,-100.00,SE,128,13.0,21.0,19,0.00,,,0.00,508.000000,,2013-06-14 00:34:00,
2013-06-13 18:43:00,87.0,40.0,-100.00,SE,128,13.0,21.0,19,0.00,,,0.00,508.000000,,2013-06-14 00:43:00,
2013-06-13 18:53:00,87.0,40.0,-100.00,SE,128,13.0,21.0,19,0.00,,,0.00,508.000000,,2013-06-14 00:53:00,
2013-06-13 19:01:00,84.0,41.0,-100.00,SE,133,14.0,26.0,22,0.00,,,0.00,291.000000,,2013-06-14 01:01:00,
2013-06-13 19:22:00,84.0,41.0,-100.00,SE,133,14.0,26.0,22,0.00,,,0.00,291.000000,,2013-06-14 01:22:00,
2013-06-13 19:33:00,84.0,41.0,-100.00,SE,133,14.0,26.0,22,0.00,,,0.00,291.000000,,2013-06-14 01:33:00,
2013-06-13 19:43:00,84.0,41.0,-100.00,SE,133,14.0,26.0,22,0.00,,,0.00,291.000000,,2013-06-14 01:43:00,
2013-06-13 19:52:00,84.0,41.0,-100.00,SE,133,14.0,26.0,22,0.00,,,0.00,291.000000,,2013-06-14 01:52:00,
2013-06-13 20:01:00,80.0,47.0,-100.00,SE,127,16.0,25.0,31,0.00,,,0.00,68.000000,,2013-06-14 02:01:00,
2013-06-13 20:22:00,80.0,47.0,-100.00,SE,127,16.0,25.0,31,0.00,,,0.00,68.000000,,2013-06-14 02:22:00,
2013-06-13 20:33:00,80.0,47.0,-100.00,SE,127,16.0,25.0,31,0.00,,,0.00,68.000000,,2013-06-14 02:33:00,
2013-06-13 20:43:00,80.0,47.0,-100.00,SE,127,16.0,25.0,31,0.00,,,0.00,68.000000,,2013-06-14 02:43:00,
2013-06-13 20:53:00,80.0,47.0,-100.00,SE,127,16.0,25.0,31,0.00,,,0.00,68.000000,,2013-06-14 02:53:00,
2013-06-13 21:01:00,78.0,49.0,-100.00,SE,126,13.0,23.0,36,0.00,,,0.00,2.000000,,2013-06-14 03:01:00,
2013-06-13 21:22:00,78.0,49.0,-100.00,SE,126,13.0,23.0,36,0.00,,,0.00,2.000000,,2013-06-14 03:22:00,
2013-06-13 21:34:00,78.0,49.0,-100.00,SE,126,13.0,23.0,36,0.00,,,0.00,2.000000,,2013-06-14 03:34:00,
2013-06-13 21:43:00,78.0,49.0,-100.00,SE,126,13.0,23.0,36,0.00,,,0.00,2.000000,,2013-06-14 03:43:00,
2013-06-13 21:53:00,78.0,49.0,-100.00,SE,126,13.0,23.0,36,0.00,,,0.00,2.000000,,2013-06-14 03:53:00,
2013-06-13 22:01:00,74.0,51.0,-100.00,SE,144,15.0,23.0,45,0.00,,,0.00,0.000000,,2013-06-14 04:01:00,
2013-06-13 22:23:00,74.0,51.0,-100.00,SE,144,15.0,23.0,45,0.00,,,0.00,0.000000,,2013-06-14 04:23:00,
2013-06-13 22:33:00,74.0,51.0,-100.00,SE,144,15.0,23.0,45,0.00,,,0.00,0.000000,,2013-06-14 04:33:00,
2013-06-13 22:43:00,74.0,51.0,-100.00,SE,144,15.0,23.0,45,0.00,,,0.00,0.000000,,2013-06-14 04:43:00,
2013-06-13 22:53:00,74.0,51.0,-100.00,SE,144,15.0,23.0,45,0.00,,,0.00,0.000000,,2013-06-14 04:53:00,
2013-06-13 23:01:00,72.0,53.0,-100.00,SE,144,13.0,22.0,51,0.00,,,0.00,0.000000,,2013-06-14 05:01:00,
2013-06-13 23:22:00,72.0,53.0,-100.00,SE,144,13.0,22.0,51,0.00,,,0.00,0.000000,,2013-06-14 05:22:00,
2013-06-13 23:34:00,72.0,53.0,-100.00,SE,144,13.0,22.0,51,0.00,,,0.00,0.000000,,2013-06-14 05:34:00,
2013-06-13 23:43:00,72.0,53.0,-100.00,SE,144,13.0,22.0,51,0.00,,,0.00,0.000000,,2013-06-14 05:43:00,
2013-06-13 23:52:00,72.0,53.0,-100.00,SE,144,13.0,22.0,51,0.00,,,0.00,0.000000,,2013-06-14 05:52:00,